Regional Weather Roundup
Issued by NWS Grand Forks, ND

Home | Current Version | Previous Version | Text Only | Print | Product List | Glossary Off
Versions: 1 2 3 4 5 6 7 8 9 10 11 12 13 14 15 16 17 18 19 20 21 22 23 24 25 26 27 28 29 30 31 32 33 34 35 36 37 38 39 40 41 42 43 44 45 46 47 48 49 50

000
ASUS43 KFGF 210510
RWRFGF
PRAIRIE TO PINES  WEATHER ROUNDUP
NATIONAL WEATHER SERVICE EASTERN NORTH DAKOTA/GRAND FORKS ND
1200 AM CDT SUN SEP 21 2014

 **SATELLITE DATA USED TO AUGMENT SKY COVER AT AUTOMATED STATIONS**
 *****  WEATHER ACROSS EASTERN NORTH DAKOTA  *****

CITY           SKY/WX    TMP DP  RH WIND       PRES   REMARKS
GRAND FORKS    MOCLDY    54  50  86 NW8       29.97R
GRAND FRKS AFB MOCLDY    54  52  94 NW9       29.98R
GRAND FRKS NWS   N/A     54 N/A N/A NW6         N/A
DEVILS LAKE    CLEAR     55  45  67 NW15      30.02R
FARGO          PTCLDY    54  49  83 NW8       29.96R
WAHPETON ARPT  CLEAR     50  45  81 NW8       29.98R
$$

 ***** WEATHER ACROSS CENTRAL AND WESTERN NORTH DAKOTA  *****

CITY           SKY/WX    TMP DP  RH WIND       PRES   REMARKS
BISMARCK       CLEAR     58  40  51 NW12      30.14R
MINOT          CLEAR     56  40  55 W14       30.10R
JAMESTOWN      CLOUDY    58  46  64 NW12      30.04R
MINOT AFB      CLEAR     52  44  73 W10       30.09R
GARRISON         N/A     53  41  63 NW12      30.13R
WILLISTON      CLEAR     51  36  56 NW9       30.19R
DICKINSON      CLEAR     48  36  63 NW8       30.19R
HETTINGER      CLEAR     48  35  60 W3        30.23R
$$

 *****  OTHER AIRPORT OBSERVATIONS IN OUR AREA  *****

CITY           SKY/WX    TMP DP  RH WIND       PRES   REMARKS
WALHALLA         N/A     54  54 100 NW12      29.99R
GRAFTON AIRPOR MOCLDY    54  52  94 NW9       29.97R
VALLEY CITY AR MOCLDY    55  46  71 NW12      30.01R
CANDO          FAIR      50  46  87 NW8       30.05R
CAVALIER APRT  FAIR      54  50  87 NW10G17   29.98R
GWINNER        CLOUDY    57  45  62 W12       30.02R
SHEYENNE NWR     N/A     56  46  69 W5        29.95S
ROLLA          MOCLDY    54  46  76 NW13      30.06R
 ***** THE ABOVE OBSERVATIONS ARE NON NWS ARE NOT QUALITY
       CONTROLLED AND MAY MIS-REPORT RAIN FOR SNOW...
$$

  *****  WEATHER ACROSS NORTHERN MINNESOTA  *****

CITY           SKY/WX    TMP DP  RH WIND       PRES   REMARKS
FLAG ISLAND    LGT RAIN  52  48  87 N9        29.90R
WARROAD        CLOUDY    50  46  87 W3        29.93R
ROSEAU         CLOUDY    52  46  82 W3        29.93R
HALLOCK        CLOUDY    54  52  94 NW6       29.96R
THF RVR FALLS  CLOUDY    52  48  87 N10       29.95R
BAUDETTE       LGT RAIN  50  48  93 NW9       29.90R
WASKISH        LGT RAIN  50  48  93 N8        29.90R
CROOKSTON      MOCLDY    54  52  94 N7        29.97R
STEPHEN NDAWN    N/A     54  52  94 NW6         N/A
GREENBUSH NDAW   N/A     52  52 100 NW6         N/A
$$
  *****  WEATHER ACROSS CENTRAL AND WEST MINNESOTA  *****

CITY           SKY/WX    TMP DP  RH WIND       PRES   REMARKS
FOSSTON        MOCLDY    48  46  93 NW5       29.95R
BEMIDJI        MOCLDY    48  47  97 NW8       29.91R
PARK RAPIDS    CLOUDY    51  48  89 NW9       29.91R
ELBOW LAKE     MOCLDY    53  50  87 NW8       29.95R
WADENA         PTCLDY    52  48  87 NW7       29.90S
DETROIT LAKES  PTCLDY    52  50  93 NW12      29.95R
MOORHEAD       CLEAR     54  54 100 N7        29.97R
FERGUS FALLS   CLEAR     50  46  87 W7        29.96R
MORRIS MN      CLEAR     52  48  87 NW6       29.94R
STAPLES        CLEAR     52  45  76 NW8       29.90R
$$
  *****  WEATHER ELSEWHERE ACROSS MINNESOTA  *****

CITY           SKY/WX    TMP DP  RH WIND       PRES   REMARKS
DULUTH         LGT RAIN  54  50  86 NW14      29.74R
INTRNTL FALLS  LGT RAIN  51  49  92 NW13      29.85R
ELY            HVY RAIN  54  52  94 N6        29.76R
CLOQUET        RAIN      52  48  87 NW16G24   29.76R
WHEATON        CLEAR     55  45  67 NW10      29.99R
BRAINERD       PTCLDY    51  46  83 NW10      29.88R
HIBBING        LGT RAIN  52  48  86 NW17G25   29.79R
ALEXANDRIA     MOCLDY    54  50  86 NW8       29.93R
SAINT CLOUD    CLEAR     58  49  72 W13       29.87R
MINNEAPOLIS    PTCLDY    58  51  78 W12       29.85S
$$

  *****  WEATHER ACROSS SOUTH DAKOTA  *****

CITY           SKY/WX    TMP DP  RH WIND       PRES   REMARKS
SIOUX FALLS    CLEAR     57  47  69 W9        30.04S
BROOKINGS      NOT AVBL
WATERTOWN      CLEAR     58  45  62 NW12      30.02R
HURON          CLEAR     54  41  61 NW9       30.07R
SISSETON         N/A     60  44  55 NW17G24   29.97R
ABERDEEN       CLEAR     59  41  51 NW14      30.07R
MITCHELL       CLEAR     56  43  61 W8        30.08R
PIERRE         CLEAR     52  43  71 NW9       30.14R
MOBRIDGE       CLEAR     54  44  69 NW6       30.12R
RAPID CITY     CLEAR     55  39  54 N12       30.26R
$$

  *****  SOME WEATHER IN NEARBY STATES *****

CITY           SKY/WX    TMP DP  RH WIND       PRES   REMARKS
GLASGOW MT     CLEAR     51  36  56 N5        30.23R
GREAT FALLS MT CLEAR     54  41  61 E9        30.26S
CHEYENNE WY    MOCLDY    58  39  49 NE7       30.38F
SCOTTSBLUFF NE CLEAR     55  42  61 SE5       30.31R
OMAHA NE       CLEAR     64  54  69 N5        30.06R
DES MOINES IA  PTCLDY    66  51  58 N12G28    30.00R
DAVENPORT IA   MOCLDY    66  57  72 NW10      29.85R
CHICAGO IL     PTCLDY    69  66  90 SW9       29.72F
EAU CLAIRE WI  MOCLDY    56  51  84 W12       29.77F
LA CROSSE WI   CLEAR     60  53  77 NW10      29.82R
$$

  *****  SOME NATIONAL WEATHER *****

CITY           SKY/WX    TMP DP  RH WIND       PRES   REMARKS
LA GUARDIA NY  CLOUDY    70  63  78 CALM      30.03F
RALEIGH NC     CLOUDY    66  61  84 N3        29.99F
ATLANTA GA     CLEAR     70  60  70 N3        30.06S
NEW ORLEANS LA CLEAR     79  69  71 E5        29.98F
OKLAHOMA CITY  CLEAR     72  66  81 S7        30.03F
ALBUQUERQUE NM MOCLDY    73  52  47 SE5       30.21R
SALT LAKE CITY MOCLDY    70  49  47 S5        30.07R
LOS ANGELES CA PTCLDY    69  61  75 W7        29.93R
BOISE ID       CLEAR     68  47  46 SE7       30.01S
SEATTLE WA     CLEAR     64  56  75 N9        29.90F
$$

*** WEATHER ACROSS MANITOBA...SASKATCHEWAN AND ONTARIO ***
                ***ONTARIO***

CITY           SKY/WX    TMP DP  RH WIND       PRES   REMARKS
GERALDTON      CLOUDY    41  41 100 N9        29.81R
THUNDER BAY    CLOUDY    52  46  82 NE6       29.78R
SIOUX LOOKOUT  CLOUDY    45  43  93 CALM      29.87R
TORONTO        CLOUDY    70  63  78 SW10G18   29.74S
BIG TROUT LK   CLOUDY    41  36  81 N5        29.91R
PICKLE LAKE    NOT AVBL
DRYDEN         MOCLDY    48  46  93 NE6       29.86R
KENORA         LGT RAIN  48  48 100 NW7       29.90R
$$
                *** MANITOBA***

CITY           SKY/WX    TMP DP  RH WIND       PRES   REMARKS
BRANDON        MOCLDY    54  48  82 NW10      30.06R
DAUPHIN        CLOUDY    55  50  82 W6        30.03R
ISLAND LAKE    CLOUDY    48  41  76 CALM      29.95R
PILOT MOUND    NOT AVBL
THE PAS        CLOUDY    54  48  82 N12       30.02R
THOMPSON       PTCLDY    32  32 100 NW5       29.99R
WINNIPEG       PTCLDY    50  50 100 NW12      29.97R
LYNN LAKE      CLOUDY    45  43  93 SW6       29.98R
CHURCHILL      CLEAR     36  34  93 W3        29.97R
$$
                ***SASKATCHEWAN***

CITY           SKY/WX    TMP DP  RH WIND       PRES   REMARKS
ESTEVAN        NOT AVBL
KINDERSLEY     PTCLDY    45  39  81 S3        30.18S
LLOYDMINSTER   CLEAR     46  36  66 SW8       30.12R
PRINCE ALBERT  CLEAR     41  39  93 N2        30.09R
REGINA         CLEAR     45  41  87 NW7       30.15R
YORKTON        CLEAR     48  45  87 W9        30.09R
N. BATTLEFORD  CLEAR     48  36  61 SW3       30.15R
LA RONGE       CLEAR     39  39 100 CALM      30.06R
SASKATOON      CLEAR     45  37  76 SW5       30.15R
SWIFT CURRENT  CLEAR     48  36  61 SW9       30.22R
$$
NOTE: THESE ARE AUTOMATED STATIONS WITH LIMITED QUALITY CONTROL
      "FAIR" INDICATES FEW OR NO CLOUDS BELOW 12,000 FEET WITH NO
      SIGNIFICANT WEATHER AND/OR OBSTRUCTIONS TO VISIBILITY.
      SKY/WX - SKY CONDITION AND SIGNIFICANT WEATHER.
      TMP - AIR TEMPERATURE.    DP   - DEWPOINT TEMPERATURE.
      RH  - RELATIVE HUMIDITY.  PRES - PRESSURE.
      HX  - HEAT INDEX.         WCI  - WIND CHILL INDEX.
$



USA.gov is the U.S. government's official web portal to all federal, state and local government web resources and services.